Location: Unspecified
(54.1780°N, 0.0000°E)
Time: 12:10:31
(UTC+00:00)

Altair - Pass Details

Date: 22 June 2019
Orbit: 1501 x 1683 km, 47.2° (Epoch: 19 July)

Event Time Altitude Azimuth Distance (km) Brightness Sun altitude
Rises 03:07:06 0° 285° (WNW) 4,875 9.9 -2.8°
Reaches altitude 10° 03:11:23 10° 269° (W) 3,910 9.2 -2.4°
Maximum altitude 03:17:46 19° 229° (SW) 3,241 8.6 -1.7°
Drops below altitude 10° 03:24:13 10° 189° (S) 3,938 9.2 -1.1°
Sets 03:28:35 0° 173° (S) 4,922 9.8 -0.6°
